Volver al catálogo

IRIDIUM 137

ActivoComunicacionesPO
NORAD 43076·PAYLOAD·🇺🇸 United States

Lanzado Dec 23, 2017 desde Vandenberg Space Force Base

Loading…

Próximos Pases (próximas 24 horas)

TLE

ActualizadoSource: CelesTrak SupGP

Época: Sep 14, 2026, 21:09 UTC

1 43076C 17083G   26257.88159722  .00002961  00000+0  10586-2 0  2579
2 43076  86.3918 284.6667 0001965  98.1822   7.2462 14.34213968    10

Sigue IRIDIUM 137 en tiempo real con AllMySat

Download on the App Store